TimeCDT,TemperatureF,Dew PointF,Humidity,Sea Level PressureIn,VisibilityMPH,Wind Direction,Wind SpeedMPH,Gust SpeedMPH,PrecipitationIn,Events,Conditions,WindDirDegrees,DateUTC
12:53 AM,75.9,60.1,58,29.94,10.0,SSE,13.8,-,N/A,,Clear,160,2013-07-13 05:53:00
1:53 AM,73.9,60.1,62,29.94,10.0,South,10.4,-,N/A,,Clear,170,2013-07-13 06:53:00
2:53 AM,73.0,60.1,64,29.93,10.0,South,9.2,-,N/A,,Partly Cloudy,170,2013-07-13 07:53:00
3:43 AM,73.4,60.8,65,29.97,10.0,South,8.1,-,N/A,Thunderstorm,Thunderstorm,190,2013-07-13 08:43:00
3:53 AM,71.1,62.1,73,29.94,3.0,SSE,11.5,-,0.09,Rain-Thunderstorm,Heavy Thunderstorms and Rain,150,2013-07-13 08:53:00
4:02 AM,69.8,62.6,78,29.96,2.0,South,21.9,-,0.19,Rain-Thunderstorm,Heavy Thunderstorms and Rain,170,2013-07-13 09:02:00
4:17 AM,71.6,62.6,73,29.95,10.0,South,13.8,25.3,0.25,Rain-Thunderstorm,Light Thunderstorms and Rain,180,2013-07-13 09:17:00
4:53 AM,71.1,62.1,73,29.93,10.0,SSE,9.2,20.7,0.26,Thunderstorm,Thunderstorm,160,2013-07-13 09:53:00
5:24 AM,69.8,62.6,78,29.97,10.0,South,5.8,-,0.00,,Mostly Cloudy,170,2013-07-13 10:24:00
5:53 AM,70.0,63.0,78,29.93,10.0,SSE,6.9,-,0.00,,Overcast,150,2013-07-13 10:53:00
6:23 AM,69.8,62.6,78,29.97,10.0,SSE,6.9,-,N/A,Thunderstorm,Mostly Cloudy,160,2013-07-13 11:23:00
6:38 AM,69.8,62.6,78,29.97,10.0,South,6.9,-,N/A,,Scattered Clouds,170,2013-07-13 11:38:00
6:53 AM,70.0,63.0,78,29.95,10.0,South,8.1,-,N/A,Thunderstorm,Mostly Cloudy,170,2013-07-13 11:53:00
7:13 AM,69.8,62.6,78,29.97,10.0,SSE,13.8,-,N/A,,Mostly Cloudy,160,2013-07-13 12:13:00
7:39 AM,69.8,62.6,78,29.97,6.0,South,9.2,-,0.02,Rain-Thunderstorm,Light Thunderstorms and Rain,190,2013-07-13 12:39:00
7:53 AM,70.0,63.0,78,29.94,10.0,South,9.2,-,0.02,Rain-Thunderstorm,Light Thunderstorms and Rain,170,2013-07-13 12:53:00
8:03 AM,69.8,62.6,78,29.95,10.0,SSE,13.8,-,0.00,,Scattered Clouds,160,2013-07-13 13:03:00
8:53 AM,72.0,63.0,73,29.95,10.0,South,9.2,-,0.00,,Partly Cloudy,170,2013-07-13 13:53:00
9:53 AM,75.9,64.0,67,29.97,10.0,SSE,6.9,-,N/A,,Partly Cloudy,160,2013-07-13 14:53:00
10:53 AM,79.0,64.0,60,29.98,10.0,ESE,9.2,-,N/A,,Clear,120,2013-07-13 15:53:00
11:53 AM,80.1,64.9,60,29.96,10.0,SE,15.0,-,N/A,,Clear,130,2013-07-13 16:53:00
12:53 PM,82.0,66.0,58,29.96,10.0,SE,20.7,26.5,N/A,,Clear,130,2013-07-13 17:53:00
1:53 PM,81.0,66.0,60,29.97,10.0,SE,21.9,26.5,N/A,,Clear,130,2013-07-13 18:53:00
2:53 PM,82.9,66.0,56,29.95,10.0,SSE,19.6,-,N/A,,Clear,160,2013-07-13 19:53:00
3:53 PM,84.9,66.9,55,29.94,10.0,SSE,16.1,25.3,N/A,,Clear,150,2013-07-13 20:53:00
4:53 PM,84.9,66.9,55,29.94,10.0,SSE,18.4,-,N/A,,Clear,160,2013-07-13 21:53:00
5:53 PM,82.9,68.0,60,29.94,10.0,SE,16.1,-,N/A,,Clear,140,2013-07-13 22:53:00
6:53 PM,81.0,68.0,65,29.95,10.0,SE,13.8,-,N/A,,Clear,140,2013-07-13 23:53:00
7:53 PM,80.1,68.0,67,29.95,10.0,SE,10.4,-,N/A,,Clear,140,2013-07-14 00:53:00
8:53 PM,78.1,66.0,66,29.96,10.0,SE,17.3,-,N/A,,Clear,140,2013-07-14 01:53:00
9:53 PM,75.9,64.9,69,29.97,10.0,SE,16.1,-,N/A,,Clear,140,2013-07-14 02:53:00
10:53 PM,73.9,64.0,71,30.00,10.0,SE,12.7,-,N/A,,Clear,140,2013-07-14 03:53:00
11:53 PM,73.0,64.0,73,30.03,10.0,SSE,12.7,-,N/A,,Clear,150,2013-07-14 04:53:00